User: anonymous   Login
Location: Houston
(29.7631°N, 95.3631°W)
Time: 07:18:33
(UTC-05:00)
Language:

Gurwin Techsat 1B - Orbit

View from above orbital plane
View from above orbital plane
View from above satellite
View from above satellite

Ground track
Ground track

The orbit data is extracted from the following two-line orbital elements,

1 25397U 98043D   21263.84416643 -.00000011  00000-0  14819-4 0  9990
2 25397  98.7779 209.1652 0001824 130.4975 229.6362 14.23715762205289
Epoch (UTC): 20 September 2021 20:15:35
Eccentricity: 0.0001824
inclination: 98.7779°
perigee height: 811 km
apogee height: 814 km
right ascension of ascending node: 209.1652°
argument of perigee: 130.4975°
revolutions per day: 14.23715762
mean anomaly at epoch: 229.6362°
orbit number at epoch: 20528

The dashed part of the orbit path shows where the satellite is in the earth's shadow,  

DLR